Tracking 20369 objects as of 17-Feb-2020
HD Live streaming from Space Station
objects crossing your sky now

COSMOS 1289

Track COSMOS 1289 now!
10-day predictions
COSMOS 1289 is classified as:


NORAD ID: 12638
Int'l Code: 1981-074C
Perigee: 1,432.7 km
Apogee: 1,471.6 km
Inclination: 74.0 °
Period: 114.8 minutes
Semi major axis: 7823 km
RCS: 0.7098 m2 (medium)
Launch date: August 6, 1981
Source: Commonwealth of Independent States (former USSR) (CIS)
Launch site: PLESETSK MISSILE AND SPACE COMPLEX (PKMTR)
aabbcc
Your satellite tracking list
Your tracking list is empty




NASA's NSSDC Master Catalog

Two Line Element Set (TLE):
1 12638U 81074C   20047.33345208 -.00000006 +00000-0 +60109-4 0  9998
2 12638 074.0362 003.4404 0024856 354.3464 118.8702 12.54680168764716
Source of the keplerian elements: AFSPC